Year,Month,Day,Hour,Minute,Value (Times are PST for temperature in C)
2018,07,14,00,00,14.10
2018,07,14,00,01,14.10
2018,07,14,00,02,14.10
2018,07,14,00,03,14.10
2018,07,14,00,04,14.10
2018,07,14,00,05,14.10
2018,07,14,00,06,14.10
2018,07,14,00,07,14.10
2018,07,14,00,08,14.10
2018,07,14,00,09,14.10
2018,07,14,00,10,14.00
2018,07,14,00,11,14.00
2018,07,14,00,12,14.00
2018,07,14,00,13,14.00
2018,07,14,00,14,14.00
2018,07,14,00,15,14.00
2018,07,14,00,16,14.00
2018,07,14,00,17,13.90
2018,07,14,00,18,13.90
2018,07,14,00,19,13.90
2018,07,14,00,20,13.90
2018,07,14,00,21,13.90
2018,07,14,00,22,13.90
2018,07,14,00,23,13.90
2018,07,14,00,24,13.90
2018,07,14,00,25,13.80
2018,07,14,00,26,13.80
2018,07,14,00,27,13.80
2018,07,14,00,28,13.80
2018,07,14,00,29,13.80
2018,07,14,00,30,13.80
2018,07,14,00,31,13.80
2018,07,14,00,32,13.80
2018,07,14,00,33,13.80
2018,07,14,00,34,13.80
2018,07,14,00,35,13.70
2018,07,14,00,36,13.70
2018,07,14,00,37,13.70
2018,07,14,00,38,13.70
2018,07,14,00,39,13.70
2018,07,14,00,40,13.70
2018,07,14,00,41,13.70
2018,07,14,00,42,13.70
2018,07,14,00,43,13.60
2018,07,14,00,44,13.60
2018,07,14,00,45,13.60
2018,07,14,00,46,13.60
2018,07,14,00,47,13.60
2018,07,14,00,48,13.60
2018,07,14,00,49,13.50
2018,07,14,00,50,13.60
2018,07,14,00,51,13.50
2018,07,14,00,52,13.50
2018,07,14,00,53,13.50
2018,07,14,00,54,13.50
2018,07,14,00,55,13.50
2018,07,14,00,56,13.40
2018,07,14,00,57,13.40
2018,07,14,00,58,13.40
2018,07,14,00,59,13.40
2018,07,14,01,00,13.40
2018,07,14,01,01,13.40
2018,07,14,01,02,13.40
2018,07,14,01,03,13.40
2018,07,14,01,04,13.40
2018,07,14,01,05,13.40
2018,07,14,01,06,13.40
2018,07,14,01,07,13.40
2018,07,14,01,08,13.40
2018,07,14,01,09,13.40
2018,07,14,01,10,13.40
2018,07,14,01,11,13.50
2018,07,14,01,12,13.40
2018,07,14,01,13,13.40
2018,07,14,01,14,13.40
2018,07,14,01,15,13.40
2018,07,14,01,16,13.40
2018,07,14,01,17,13.50
2018,07,14,01,18,13.40
2018,07,14,01,19,13.40
2018,07,14,01,20,13.40
2018,07,14,01,21,13.40
2018,07,14,01,22,13.40
2018,07,14,01,23,13.40
2018,07,14,01,24,13.40
2018,07,14,01,25,13.40
2018,07,14,01,26,13.40
2018,07,14,01,27,13.40
2018,07,14,01,28,13.30
2018,07,14,01,29,13.30
2018,07,14,01,30,13.30
2018,07,14,01,31,13.30
2018,07,14,01,32,13.30
2018,07,14,01,33,13.30
2018,07,14,01,34,13.20
2018,07,14,01,35,13.20
2018,07,14,01,36,13.20
2018,07,14,01,37,13.20
2018,07,14,01,38,13.20
2018,07,14,01,39,13.20
2018,07,14,01,40,13.20
2018,07,14,01,41,13.20
2018,07,14,01,42,13.20
2018,07,14,01,43,13.20
2018,07,14,01,44,13.20
2018,07,14,01,45,13.20
2018,07,14,01,46,13.20
2018,07,14,01,47,13.20
2018,07,14,01,48,13.20
2018,07,14,01,49,13.20
2018,07,14,01,50,13.20
2018,07,14,01,51,13.20
2018,07,14,01,52,13.20
2018,07,14,01,53,13.20
2018,07,14,01,54,13.20
2018,07,14,01,55,13.20
2018,07,14,01,56,13.20
2018,07,14,01,57,13.20
2018,07,14,01,58,13.20
2018,07,14,01,59,13.20
2018,07,14,02,00,13.20
2018,07,14,02,01,13.20
2018,07,14,02,02,13.20
2018,07,14,02,03,13.20
2018,07,14,02,04,13.20
2018,07,14,02,05,13.20
2018,07,14,02,06,13.10
2018,07,14,02,07,13.20
2018,07,14,02,08,13.10
2018,07,14,02,09,13.10
2018,07,14,02,10,13.10
2018,07,14,02,11,13.10
2018,07,14,02,12,13.10
2018,07,14,02,13,13.10
2018,07,14,02,14,13.10
2018,07,14,02,15,13.10
2018,07,14,02,16,13.10
2018,07,14,02,17,13.00
2018,07,14,02,18,13.00
2018,07,14,02,19,12.90
2018,07,14,02,20,12.90
2018,07,14,02,21,12.90
2018,07,14,02,22,12.90
2018,07,14,02,23,12.90
2018,07,14,02,24,12.90
2018,07,14,02,25,12.90
2018,07,14,02,26,12.90
2018,07,14,02,27,12.90
2018,07,14,02,28,12.80
2018,07,14,02,29,12.80
2018,07,14,02,30,12.80
2018,07,14,02,31,12.80
2018,07,14,02,32,12.80
2018,07,14,02,33,12.80
2018,07,14,02,34,12.80
2018,07,14,02,35,12.80
2018,07,14,02,36,12.80
2018,07,14,02,37,12.80
2018,07,14,02,38,12.80
2018,07,14,02,39,12.70
2018,07,14,02,40,12.70
2018,07,14,02,41,12.70
2018,07,14,02,42,12.70
2018,07,14,02,43,12.70
2018,07,14,02,44,12.70
2018,07,14,02,45,12.70
2018,07,14,02,46,12.70
2018,07,14,02,47,12.70
2018,07,14,02,48,12.70
2018,07,14,02,49,12.70
2018,07,14,02,50,12.70
2018,07,14,02,51,12.70
2018,07,14,02,52,12.60
2018,07,14,02,53,12.60
2018,07,14,02,54,12.60
2018,07,14,02,55,12.60
2018,07,14,02,56,12.60
2018,07,14,02,57,12.60
2018,07,14,02,58,12.60
2018,07,14,02,59,12.60
2018,07,14,03,00,12.60
2018,07,14,03,01,12.60
2018,07,14,03,02,12.60
2018,07,14,03,03,12.60
2018,07,14,03,04,12.60
2018,07,14,03,05,12.60
2018,07,14,03,06,12.50
2018,07,14,03,07,12.60
2018,07,14,03,08,12.50
2018,07,14,03,09,12.50
2018,07,14,03,10,12.50
2018,07,14,03,11,12.50
2018,07,14,03,12,12.50
2018,07,14,03,13,12.50
2018,07,14,03,14,12.50
2018,07,14,03,15,12.50
2018,07,14,03,16,12.50
2018,07,14,03,17,12.50
2018,07,14,03,18,12.50
2018,07,14,03,19,12.50
2018,07,14,03,20,12.50
2018,07,14,03,21,12.40
2018,07,14,03,22,12.50
2018,07,14,03,23,12.50
2018,07,14,03,24,12.40
2018,07,14,03,25,12.40
2018,07,14,03,26,12.40
2018,07,14,03,27,12.40
2018,07,14,03,28,12.40
2018,07,14,03,29,12.40
2018,07,14,03,30,12.40
2018,07,14,03,31,12.40
2018,07,14,03,32,12.40
2018,07,14,03,33,12.40
2018,07,14,03,34,12.40
2018,07,14,03,35,12.40
2018,07,14,03,36,12.40
2018,07,14,03,37,12.30
2018,07,14,03,38,12.40
2018,07,14,03,39,12.30
2018,07,14,03,40,12.30
2018,07,14,03,41,12.30
2018,07,14,03,42,12.30
2018,07,14,03,43,12.30
2018,07,14,03,44,12.30
2018,07,14,03,45,12.30
2018,07,14,03,46,12.30
2018,07,14,03,47,12.30
2018,07,14,03,48,12.30
2018,07,14,03,49,12.20
2018,07,14,03,50,12.30
2018,07,14,03,51,12.20
2018,07,14,03,52,12.20
2018,07,14,03,53,12.20
2018,07,14,03,54,12.20
2018,07,14,03,55,12.20
2018,07,14,03,56,12.20
2018,07,14,03,57,12.20
2018,07,14,03,58,12.20
2018,07,14,03,59,12.20
2018,07,14,04,00,12.20
2018,07,14,04,01,12.20
2018,07,14,04,02,12.20
2018,07,14,04,03,12.20
2018,07,14,04,04,12.20
2018,07,14,04,05,12.20
2018,07,14,04,06,12.20
2018,07,14,04,07,12.20
2018,07,14,04,08,12.20
2018,07,14,04,09,12.20
2018,07,14,04,10,12.10
2018,07,14,04,11,12.20
2018,07,14,04,12,12.20
2018,07,14,04,13,12.20
2018,07,14,04,14,12.10
2018,07,14,04,15,12.20
2018,07,14,04,16,12.20
2018,07,14,04,17,12.20
2018,07,14,04,18,12.20
2018,07,14,04,19,12.20
2018,07,14,04,20,12.20
2018,07,14,04,21,12.20
2018,07,14,04,22,12.20
2018,07,14,04,23,12.20
2018,07,14,04,24,12.20
2018,07,14,04,25,12.20
2018,07,14,04,26,12.20
2018,07,14,04,27,12.10
2018,07,14,04,28,12.10
2018,07,14,04,29,12.10
2018,07,14,04,30,12.10
2018,07,14,04,31,12.10
2018,07,14,04,32,12.10
2018,07,14,04,33,12.10
2018,07,14,04,34,12.10
2018,07,14,04,35,12.10
2018,07,14,04,36,12.00
2018,07,14,04,37,12.00
2018,07,14,04,38,12.00
2018,07,14,04,39,12.00
2018,07,14,04,40,12.00
2018,07,14,04,41,12.00
2018,07,14,04,42,11.90
2018,07,14,04,43,11.90
2018,07,14,04,44,11.90
2018,07,14,04,45,11.90
2018,07,14,04,46,11.90
2018,07,14,04,47,11.90
2018,07,14,04,48,11.90
2018,07,14,04,49,11.90
2018,07,14,04,50,11.90
2018,07,14,04,51,11.80
2018,07,14,04,52,11.80
2018,07,14,04,53,11.80
2018,07,14,04,54,11.80
2018,07,14,04,55,11.80
2018,07,14,04,56,11.80
2018,07,14,04,57,11.80
2018,07,14,04,58,11.80
2018,07,14,04,59,11.80
2018,07,14,05,00,11.80
2018,07,14,05,01,11.80
2018,07,14,05,02,11.80
2018,07,14,05,03,11.80
2018,07,14,05,04,11.70
2018,07,14,05,05,11.70
2018,07,14,05,06,11.70
2018,07,14,05,07,11.70
2018,07,14,05,08,11.70
2018,07,14,05,09,11.70
2018,07,14,05,10,11.70
2018,07,14,05,11,11.70
2018,07,14,05,12,11.70
2018,07,14,05,13,11.70
2018,07,14,05,14,11.60
2018,07,14,05,15,11.60
2018,07,14,05,16,11.60
2018,07,14,05,17,11.60
2018,07,14,05,18,11.60
2018,07,14,05,19,11.60
2018,07,14,05,20,11.60
2018,07,14,05,21,11.60
2018,07,14,05,22,11.60
2018,07,14,05,23,11.60
2018,07,14,05,24,11.60
2018,07,14,05,25,11.60
2018,07,14,05,26,11.50
2018,07,14,05,27,11.50
2018,07,14,05,28,11.50
2018,07,14,05,29,11.50
2018,07,14,05,30,11.50
2018,07,14,05,31,11.50
2018,07,14,05,32,11.50
2018,07,14,05,33,11.50
2018,07,14,05,34,11.50
2018,07,14,05,35,11.50
2018,07,14,05,36,11.40
2018,07,14,05,37,11.40
2018,07,14,05,38,11.40
2018,07,14,05,39,11.40
2018,07,14,05,40,11.40
2018,07,14,05,41,11.40
2018,07,14,05,42,11.40
2018,07,14,05,43,11.40
2018,07,14,05,44,11.40
2018,07,14,05,45,11.40
2018,07,14,05,46,11.30
2018,07,14,05,47,11.30
2018,07,14,05,48,11.30
2018,07,14,05,49,11.30
2018,07,14,05,50,11.30
2018,07,14,05,51,11.30
2018,07,14,05,52,11.30
2018,07,14,05,53,11.30
2018,07,14,05,54,11.30
2018,07,14,05,55,11.30
2018,07,14,05,56,11.30
2018,07,14,05,57,11.30
2018,07,14,05,58,11.30
2018,07,14,05,59,11.30
2018,07,14,06,00,11.30
2018,07,14,06,01,11.30
2018,07,14,06,02,11.30
2018,07,14,06,03,11.30
2018,07,14,06,04,11.30
2018,07,14,06,05,11.30
2018,07,14,06,06,11.30
2018,07,14,06,07,11.30
2018,07,14,06,08,11.30
2018,07,14,06,09,11.30
2018,07,14,06,10,11.30
2018,07,14,06,11,11.30
2018,07,14,06,12,11.30
2018,07,14,06,13,11.30
2018,07,14,06,14,11.30
2018,07,14,06,15,11.30
2018,07,14,06,16,11.30
2018,07,14,06,17,11.30
2018,07,14,06,18,11.30
2018,07,14,06,19,11.40
2018,07,14,06,20,11.40
2018,07,14,06,21,11.40
2018,07,14,06,22,11.40
2018,07,14,06,23,11.40
2018,07,14,06,24,11.40
2018,07,14,06,25,11.40
2018,07,14,06,26,11.40
2018,07,14,06,27,11.40
2018,07,14,06,28,11.50
2018,07,14,06,29,11.50
2018,07,14,06,30,11.50
2018,07,14,06,31,11.50
2018,07,14,06,32,11.60
2018,07,14,06,33,11.60
2018,07,14,06,34,11.60
2018,07,14,06,35,11.60
2018,07,14,06,36,11.70
2018,07,14,06,37,11.70
2018,07,14,06,38,11.70
2018,07,14,06,39,11.70
2018,07,14,06,40,11.70
2018,07,14,06,41,11.70
2018,07,14,06,42,11.70
2018,07,14,06,43,11.80
2018,07,14,06,44,11.80
2018,07,14,06,45,11.80
2018,07,14,06,46,11.90
2018,07,14,06,47,11.90
2018,07,14,06,48,11.90
2018,07,14,06,49,12.00
2018,07,14,06,50,12.10
2018,07,14,06,51,12.10
2018,07,14,06,52,12.20
2018,07,14,06,53,12.20
2018,07,14,06,54,12.20
2018,07,14,06,55,12.30
2018,07,14,06,56,12.30
2018,07,14,06,57,12.30
2018,07,14,06,58,12.40
2018,07,14,06,59,12.40
2018,07,14,07,00,12.50
2018,07,14,07,01,12.50
2018,07,14,07,02,12.60
2018,07,14,07,03,12.60
2018,07,14,07,04,12.70
2018,07,14,07,05,12.70
2018,07,14,07,06,12.70
2018,07,14,07,07,12.80
2018,07,14,07,08,12.80
2018,07,14,07,09,12.80
2018,07,14,07,10,12.90
2018,07,14,07,11,12.90
2018,07,14,07,12,13.00
2018,07,14,07,13,13.10
2018,07,14,07,14,13.10
2018,07,14,07,15,13.10
2018,07,14,07,16,13.20
2018,07,14,07,17,13.20
2018,07,14,07,18,13.30
2018,07,14,07,19,13.30
2018,07,14,07,20,13.40
2018,07,14,07,21,13.40
2018,07,14,07,22,13.50
2018,07,14,07,23,13.50
2018,07,14,07,24,13.60
2018,07,14,07,25,13.60
2018,07,14,07,26,13.60
2018,07,14,07,27,13.70
2018,07,14,07,28,13.70
2018,07,14,07,29,13.80
2018,07,14,07,30,13.80
2018,07,14,07,31,13.90
2018,07,14,07,32,13.90
2018,07,14,07,33,13.90
2018,07,14,07,34,14.00
2018,07,14,07,35,14.00
2018,07,14,07,36,14.10
2018,07,14,07,37,14.10
2018,07,14,07,38,14.20
2018,07,14,07,39,14.30
2018,07,14,07,40,14.30
2018,07,14,07,41,14.40
2018,07,14,07,42,14.40
2018,07,14,07,43,14.50
2018,07,14,07,44,14.60
2018,07,14,07,45,14.60
2018,07,14,07,46,14.60
2018,07,14,07,47,14.70
2018,07,14,07,48,14.70
2018,07,14,07,49,14.70
2018,07,14,07,50,14.80
2018,07,14,07,51,14.80
2018,07,14,07,52,14.80
2018,07,14,07,53,14.80
2018,07,14,07,54,14.80
2018,07,14,07,55,14.90
2018,07,14,07,56,14.90
2018,07,14,07,57,14.90
2018,07,14,07,58,15.00
2018,07,14,07,59,15.00
2018,07,14,08,00,15.10
2018,07,14,08,01,15.10
2018,07,14,08,02,15.10
2018,07,14,08,03,15.20
2018,07,14,08,04,15.20
2018,07,14,08,05,15.20
2018,07,14,08,06,15.20
2018,07,14,08,07,15.30
2018,07,14,08,08,15.30
2018,07,14,08,09,15.40
2018,07,14,08,10,15.40
2018,07,14,08,11,15.40
2018,07,14,08,12,15.40
2018,07,14,08,13,15.50
2018,07,14,08,14,15.50
2018,07,14,08,15,15.60
2018,07,14,08,16,15.60
2018,07,14,08,17,15.70
2018,07,14,08,18,15.70
2018,07,14,08,19,15.70
2018,07,14,08,20,15.80
2018,07,14,08,21,15.80
2018,07,14,08,22,15.80
2018,07,14,08,23,15.90
2018,07,14,08,24,15.90
2018,07,14,08,25,16.00
2018,07,14,08,26,16.00
2018,07,14,08,27,16.10
2018,07,14,08,28,16.10
2018,07,14,08,29,16.10
2018,07,14,08,30,16.20
2018,07,14,08,31,16.20
2018,07,14,08,32,16.20
2018,07,14,08,33,16.30
2018,07,14,08,34,16.30
2018,07,14,08,35,16.30
2018,07,14,08,36,16.40
2018,07,14,08,37,16.40
2018,07,14,08,38,16.50
2018,07,14,08,39,16.50
2018,07,14,08,40,16.70
2018,07,14,08,41,16.70
2018,07,14,08,42,16.80
2018,07,14,08,43,16.90
2018,07,14,08,44,16.90
2018,07,14,08,45,17.00
2018,07,14,08,46,17.10
2018,07,14,08,47,17.10
2018,07,14,08,48,17.20
2018,07,14,08,49,17.20
2018,07,14,08,50,17.30
2018,07,14,08,51,17.40
2018,07,14,08,52,17.40
2018,07,14,08,53,17.50
2018,07,14,08,54,17.60
2018,07,14,08,55,17.60
2018,07,14,08,56,17.60
2018,07,14,08,57,17.70
2018,07,14,08,58,17.70
2018,07,14,08,59,17.70
2018,07,14,09,00,17.80
2018,07,14,09,01,17.80
2018,07,14,09,02,17.90
2018,07,14,09,03,17.90
2018,07,14,09,04,18.00
2018,07,14,09,05,18.00
2018,07,14,09,06,18.10
2018,07,14,09,07,18.10
2018,07,14,09,08,18.20
2018,07,14,09,09,18.20
2018,07,14,09,10,18.20
2018,07,14,09,11,18.30
2018,07,14,09,12,18.30
2018,07,14,09,13,18.40
2018,07,14,09,14,18.40
2018,07,14,09,15,18.50
2018,07,14,09,16,18.60
2018,07,14,09,17,18.60
2018,07,14,09,18,18.70
2018,07,14,09,19,18.80
2018,07,14,09,20,18.80
2018,07,14,09,21,18.90
2018,07,14,09,22,19.00
2018,07,14,09,23,19.00
2018,07,14,09,24,19.10
2018,07,14,09,25,19.10
2018,07,14,09,26,19.10
2018,07,14,09,27,19.10
2018,07,14,09,28,19.00
2018,07,14,09,29,19.00
2018,07,14,09,30,19.10
2018,07,14,09,31,19.10
2018,07,14,09,32,19.10
2018,07,14,09,33,19.10
2018,07,14,09,34,19.10
2018,07,14,09,35,19.20
2018,07,14,09,36,19.20
2018,07,14,09,37,19.20
2018,07,14,09,38,19.30
2018,07,14,09,39,19.30
2018,07,14,09,40,19.30
2018,07,14,09,41,19.30
2018,07,14,09,42,19.30
2018,07,14,09,43,19.30
2018,07,14,09,44,19.30
2018,07,14,09,45,19.40
2018,07,14,09,46,19.40
2018,07,14,09,47,19.40
2018,07,14,09,48,19.50
2018,07,14,09,49,19.50
2018,07,14,09,50,19.60
2018,07,14,09,51,19.60
2018,07,14,09,52,19.60
2018,07,14,09,53,19.70
2018,07,14,09,54,19.70
2018,07,14,09,55,19.70
2018,07,14,09,56,19.70
2018,07,14,09,57,19.70
2018,07,14,09,58,19.70
2018,07,14,09,59,19.70
2018,07,14,10,00,19.80
2018,07,14,10,01,19.70
2018,07,14,10,02,19.70
2018,07,14,10,03,19.80
2018,07,14,10,04,19.80
2018,07,14,10,05,19.90
2018,07,14,10,06,19.90
2018,07,14,10,07,20.00
2018,07,14,10,08,20.10
2018,07,14,10,09,20.10
2018,07,14,10,10,20.20
2018,07,14,10,11,20.30
2018,07,14,10,12,20.40
2018,07,14,10,13,20.40
2018,07,14,10,14,20.50
2018,07,14,10,15,20.60
2018,07,14,10,16,20.60
2018,07,14,10,17,20.70
2018,07,14,10,18,20.80
2018,07,14,10,19,20.80
2018,07,14,10,20,20.80
2018,07,14,10,21,20.80
2018,07,14,10,22,20.80
2018,07,14,10,23,20.80
2018,07,14,10,24,20.70
2018,07,14,10,25,20.70
2018,07,14,10,26,20.70
2018,07,14,10,27,20.80
2018,07,14,10,28,20.80
2018,07,14,10,29,20.80
2018,07,14,10,30,20.80
2018,07,14,10,31,20.80
2018,07,14,10,32,20.80
2018,07,14,10,33,20.90
2018,07,14,10,34,20.90
2018,07,14,10,35,21.00
2018,07,14,10,36,21.10
2018,07,14,10,37,21.20
2018,07,14,10,38,21.20
2018,07,14,10,39,21.20
2018,07,14,10,40,21.30
2018,07,14,10,41,21.30
2018,07,14,10,42,21.30
2018,07,14,10,43,21.30
2018,07,14,10,44,21.30
2018,07,14,10,45,21.40
2018,07,14,10,46,21.50
2018,07,14,10,47,21.50
2018,07,14,10,48,21.50
2018,07,14,10,49,21.60
2018,07,14,10,50,21.60
2018,07,14,10,51,21.70
2018,07,14,10,52,21.80
2018,07,14,10,53,21.80
2018,07,14,10,54,21.90
2018,07,14,10,55,21.90
2018,07,14,10,56,21.80
2018,07,14,10,57,21.80
2018,07,14,10,58,21.80
2018,07,14,10,59,21.80
2018,07,14,11,00,21.70
2018,07,14,11,01,21.70
2018,07,14,11,02,21.70
2018,07,14,11,03,21.80
2018,07,14,11,04,21.80
2018,07,14,11,05,21.80
2018,07,14,11,06,21.80
2018,07,14,11,07,21.80
2018,07,14,11,08,21.80
2018,07,14,11,09,21.80
2018,07,14,11,10,21.80
2018,07,14,11,11,21.80
2018,07,14,11,12,21.80
2018,07,14,11,13,21.80
2018,07,14,11,14,21.80
2018,07,14,11,15,21.80
2018,07,14,11,16,21.80
2018,07,14,11,17,21.80
2018,07,14,11,18,21.80
2018,07,14,11,19,21.80
2018,07,14,11,20,21.80
2018,07,14,11,21,21.80
2018,07,14,11,22,21.80
2018,07,14,11,23,21.90
2018,07,14,11,24,21.90
2018,07,14,11,25,21.90
2018,07,14,11,26,22.00
2018,07,14,11,27,22.00
2018,07,14,11,28,22.10
2018,07,14,11,29,22.10
2018,07,14,11,30,22.10
2018,07,14,11,31,22.10
2018,07,14,11,32,22.10
2018,07,14,11,33,22.10
2018,07,14,11,34,22.10
2018,07,14,11,35,22.10
2018,07,14,11,36,22.10
2018,07,14,11,37,22.20
2018,07,14,11,38,22.20
2018,07,14,11,39,22.20
2018,07,14,11,40,22.20
2018,07,14,11,41,22.10
2018,07,14,11,42,22.10
2018,07,14,11,43,22.10
2018,07,14,11,44,22.10
2018,07,14,11,45,22.10
2018,07,14,11,46,22.10
2018,07,14,11,47,22.20
2018,07,14,11,48,22.20
2018,07,14,11,49,22.30
2018,07,14,11,50,22.30
2018,07,14,11,51,22.30
2018,07,14,11,52,22.30
2018,07,14,11,53,22.40
2018,07,14,11,54,22.40
2018,07,14,11,55,22.40
2018,07,14,11,56,22.50
2018,07,14,11,57,22.50
2018,07,14,11,58,22.60
2018,07,14,11,59,22.70
2018,07,14,12,00,22.70
2018,07,14,12,01,22.80
2018,07,14,12,02,22.80
2018,07,14,12,03,22.80
2018,07,14,12,04,22.90
2018,07,14,12,05,23.00
2018,07,14,12,06,23.00
2018,07,14,12,07,23.00
2018,07,14,12,08,23.10
2018,07,14,12,09,23.10
2018,07,14,12,10,23.20
2018,07,14,12,11,23.30
2018,07,14,12,12,23.40
2018,07,14,12,13,23.50
2018,07,14,12,14,23.60
2018,07,14,12,15,23.60
2018,07,14,12,16,23.70
2018,07,14,12,17,23.70
2018,07,14,12,18,23.80
2018,07,14,12,19,23.80
2018,07,14,12,20,23.90
2018,07,14,12,21,23.90
2018,07,14,12,22,24.00
2018,07,14,12,23,24.00
2018,07,14,12,24,24.10
2018,07,14,12,25,24.10
2018,07,14,12,26,24.10
2018,07,14,12,27,24.20
2018,07,14,12,28,24.30
2018,07,14,12,29,24.30
2018,07,14,12,30,24.30
2018,07,14,12,31,24.30
2018,07,14,12,32,24.30
2018,07,14,12,33,24.40
2018,07,14,12,34,24.40
2018,07,14,12,35,24.40
2018,07,14,12,36,24.40
2018,07,14,12,37,24.40
2018,07,14,12,38,24.40
2018,07,14,12,39,24.50
2018,07,14,12,40,24.50
2018,07,14,12,41,24.50
2018,07,14,12,42,24.60
2018,07,14,12,43,24.60
2018,07,14,12,44,24.70
2018,07,14,12,45,24.70
2018,07,14,12,46,24.80
2018,07,14,12,47,24.80
2018,07,14,12,48,24.80
2018,07,14,12,49,24.90
2018,07,14,12,50,24.80
2018,07,14,12,51,24.90
2018,07,14,12,52,24.90
2018,07,14,12,53,24.90
2018,07,14,12,54,24.90
2018,07,14,12,55,25.00
2018,07,14,12,56,25.00
2018,07,14,12,57,25.10
2018,07,14,12,58,25.20
2018,07,14,12,59,25.20
2018,07,14,13,00,25.30
2018,07,14,13,01,25.40
2018,07,14,13,02,25.50
2018,07,14,13,03,25.60
2018,07,14,13,04,25.70
2018,07,14,13,05,25.70
2018,07,14,13,06,25.70
2018,07,14,13,07,25.80
2018,07,14,13,08,25.80
2018,07,14,13,09,25.80
2018,07,14,13,10,25.90
2018,07,14,13,11,25.90
2018,07,14,13,12,26.00
2018,07,14,13,13,26.00
2018,07,14,13,14,26.10
2018,07,14,13,15,26.10
2018,07,14,13,16,26.20
2018,07,14,13,17,26.20
2018,07,14,13,18,26.30
2018,07,14,13,19,26.30
2018,07,14,13,20,26.30
2018,07,14,13,21,26.30
2018,07,14,13,22,26.20
2018,07,14,13,23,26.20
2018,07,14,13,24,26.10
2018,07,14,13,25,26.10
2018,07,14,13,26,26.10
2018,07,14,13,27,26.00
2018,07,14,13,28,25.90
2018,07,14,13,29,26.00
2018,07,14,13,30,26.00
2018,07,14,13,31,26.00
2018,07,14,13,32,26.00
2018,07,14,13,33,25.90
2018,07,14,13,34,25.90
2018,07,14,13,35,25.90
2018,07,14,13,36,25.80
2018,07,14,13,37,25.90
2018,07,14,13,38,25.90
2018,07,14,13,39,26.00
2018,07,14,13,40,26.00
2018,07,14,13,41,26.00
2018,07,14,13,42,25.90
2018,07,14,13,43,25.90
2018,07,14,13,44,25.90
2018,07,14,13,45,25.90
2018,07,14,13,46,26.00
2018,07,14,13,47,26.00
2018,07,14,13,48,26.00
2018,07,14,13,49,26.00
2018,07,14,13,50,26.10
2018,07,14,13,51,26.00
2018,07,14,13,52,26.00
2018,07,14,13,53,26.10
2018,07,14,13,54,26.10
2018,07,14,13,55,26.10
2018,07,14,13,56,26.20
2018,07,14,13,57,26.20
2018,07,14,13,58,26.30
2018,07,14,13,59,26.30
2018,07,14,14,00,26.40
2018,07,14,14,01,26.40
2018,07,14,14,02,26.40
2018,07,14,14,03,26.40
2018,07,14,14,04,26.40
2018,07,14,14,05,26.40
2018,07,14,14,06,26.40
2018,07,14,14,07,26.40
2018,07,14,14,08,26.30
2018,07,14,14,09,26.30
2018,07,14,14,10,26.30
2018,07,14,14,11,26.30
2018,07,14,14,12,26.30
2018,07,14,14,13,26.30
2018,07,14,14,14,26.40
2018,07,14,14,15,26.40
2018,07,14,14,16,26.40
2018,07,14,14,17,26.40
2018,07,14,14,18,26.40
2018,07,14,14,19,26.50
2018,07,14,14,20,26.50
2018,07,14,14,21,26.50
2018,07,14,14,22,26.50
2018,07,14,14,23,26.50
2018,07,14,14,24,26.60
2018,07,14,14,25,26.60
2018,07,14,14,26,26.50
2018,07,14,14,27,26.50
2018,07,14,14,28,26.50
2018,07,14,14,29,26.40
2018,07,14,14,30,26.40
2018,07,14,14,31,26.40
2018,07,14,14,32,26.30
2018,07,14,14,33,26.30
2018,07,14,14,34,26.30
2018,07,14,14,35,26.30
2018,07,14,14,36,26.30
2018,07,14,14,37,26.20
2018,07,14,14,38,26.30
2018,07,14,14,39,26.30
2018,07,14,14,40,26.40
2018,07,14,14,41,26.50
2018,07,14,14,42,26.60
2018,07,14,14,43,26.70
2018,07,14,14,44,26.80
2018,07,14,14,45,27.00
2018,07,14,14,46,27.10
2018,07,14,14,47,27.10
2018,07,14,14,48,27.20
2018,07,14,14,49,27.30
2018,07,14,14,50,27.30
2018,07,14,14,51,27.30
2018,07,14,14,52,27.30
2018,07,14,14,53,27.30
2018,07,14,14,54,27.30
2018,07,14,14,55,27.30
2018,07,14,14,56,27.40
2018,07,14,14,57,27.40
2018,07,14,14,58,27.40
2018,07,14,14,59,27.40
2018,07,14,15,00,27.40
2018,07,14,15,01,27.40
2018,07,14,15,02,27.40
2018,07,14,15,03,27.50
2018,07,14,15,04,27.50
2018,07,14,15,05,27.60
2018,07,14,15,06,27.60
2018,07,14,15,07,27.60
2018,07,14,15,08,27.60
2018,07,14,15,09,27.60
2018,07,14,15,10,27.70
2018,07,14,15,11,27.70
2018,07,14,15,12,27.70
2018,07,14,15,13,27.70
2018,07,14,15,14,27.70
2018,07,14,15,15,27.70
2018,07,14,15,16,27.70
2018,07,14,15,17,27.80
2018,07,14,15,18,27.80
2018,07,14,15,19,27.80
2018,07,14,15,20,27.90
2018,07,14,15,21,27.90
2018,07,14,15,22,28.00
2018,07,14,15,23,28.00
2018,07,14,15,24,28.00
2018,07,14,15,25,28.10
2018,07,14,15,26,28.10
2018,07,14,15,27,28.20
2018,07,14,15,28,28.30
2018,07,14,15,29,28.30
2018,07,14,15,30,28.30
2018,07,14,15,31,28.30
2018,07,14,15,32,28.30
2018,07,14,15,33,28.40
2018,07,14,15,34,28.40
2018,07,14,15,35,28.40
2018,07,14,15,36,28.50
2018,07,14,15,37,28.50
2018,07,14,15,38,28.60
2018,07,14,15,39,28.60
2018,07,14,15,40,28.60
2018,07,14,15,41,28.60
2018,07,14,15,42,28.70
2018,07,14,15,43,28.70
2018,07,14,15,44,28.70
2018,07,14,15,45,28.70
2018,07,14,15,46,28.70
2018,07,14,15,47,28.70
2018,07,14,15,48,28.70
2018,07,14,15,49,28.80
2018,07,14,15,50,28.70
2018,07,14,15,51,28.80
2018,07,14,15,52,28.80
2018,07,14,15,53,28.90
2018,07,14,15,54,29.00
2018,07,14,15,55,29.00
2018,07,14,15,56,29.20
2018,07,14,15,57,29.20
2018,07,14,15,58,29.30
2018,07,14,15,59,29.30
2018,07,14,16,00,29.30
2018,07,14,16,01,29.30
2018,07,14,16,02,29.30
2018,07,14,16,03,29.30
2018,07,14,16,04,29.30
2018,07,14,16,05,29.30
2018,07,14,16,06,29.30
2018,07,14,16,07,29.30
2018,07,14,16,08,29.30
2018,07,14,16,09,29.30
2018,07,14,16,10,29.20
2018,07,14,16,11,29.20
2018,07,14,16,12,29.10
2018,07,14,16,13,29.10
2018,07,14,16,14,29.00
2018,07,14,16,15,28.90
2018,07,14,16,16,28.90
2018,07,14,16,17,28.90
2018,07,14,16,18,29.00
2018,07,14,16,19,29.00
2018,07,14,16,20,29.10
2018,07,14,16,21,29.10
2018,07,14,16,22,29.10
2018,07,14,16,23,29.10
2018,07,14,16,24,29.10
2018,07,14,16,25,29.00
2018,07,14,16,26,29.00
2018,07,14,16,27,29.00
2018,07,14,16,28,28.90
2018,07,14,16,29,28.90
2018,07,14,16,30,28.90
2018,07,14,16,31,28.90
2018,07,14,16,32,28.90
2018,07,14,16,33,28.90
2018,07,14,16,34,28.90
2018,07,14,16,35,28.90
2018,07,14,16,36,28.90
2018,07,14,16,37,28.90
2018,07,14,16,38,29.00
2018,07,14,16,39,29.00
2018,07,14,16,40,29.00
2018,07,14,16,41,29.10
2018,07,14,16,42,29.10
2018,07,14,16,43,29.10
2018,07,14,16,44,29.00
2018,07,14,16,45,29.00
2018,07,14,16,46,29.00
2018,07,14,16,47,29.00
2018,07,14,16,48,29.00
2018,07,14,16,49,29.00
2018,07,14,16,50,29.10
2018,07,14,16,51,29.10
2018,07,14,16,52,29.10
2018,07,14,16,53,29.10
2018,07,14,16,54,29.10
2018,07,14,16,55,29.10
2018,07,14,16,56,29.10
2018,07,14,16,57,29.10
2018,07,14,16,58,29.10
2018,07,14,16,59,29.10
2018,07,14,17,00,29.10
2018,07,14,17,01,29.20
2018,07,14,17,02,29.20
2018,07,14,17,03,29.30
2018,07,14,17,04,29.30
2018,07,14,17,05,29.30
2018,07,14,17,06,29.40
2018,07,14,17,07,29.40
2018,07,14,17,08,29.40
2018,07,14,17,09,29.40
2018,07,14,17,10,29.40
2018,07,14,17,11,29.50
2018,07,14,17,12,29.50
2018,07,14,17,13,29.60
2018,07,14,17,14,29.60
2018,07,14,17,15,29.60
2018,07,14,17,16,29.70
2018,07,14,17,17,29.70
2018,07,14,17,18,29.80
2018,07,14,17,19,29.80